Location: Hepcat Sky Observatory
(29.9800°N, 95.6500°W)
Time: 00:25:15
(UTC-05:00)

Daily predictions for brighter satellites

Satellite Brightness Start Highest point End
(mag) Time Altitude Azimuth Time Altitude Azimuth Time Altitude Azimuth
CZ-2D R/B 4.4 02:59:45 10° NE 03:01:32 19° NE 03:01:32 19° NE
Cosmos 1943 Rocket 4.4 03:04:50 10° N 03:06:33 19° N 03:06:33 19° N
SL-16 R/B 3.3 03:34:30 49° NE 03:34:30 49° NE 03:39:32 10° N
Lacrosse 5 rocket 3.7 03:50:27 24° ENE 03:50:27 24° ENE 03:52:32 10° NE
Cosmos 1656 Rocket 4.5 03:51:27 10° N 03:56:00 46° NE 03:56:00 46° NE
ARIANE 5 R/B 3.8 03:56:59 10° N 04:00:03 36° N 04:00:03 36° N
COSMOS 2455 3.5 04:00:16 10° NNW 04:06:07 51° ENE 04:11:56 10° SE
Cosmos 1818 4.2 04:08:43 53° E 04:08:43 53° E 04:13:24 10° NE
Okean O Rocket 4.1 04:07:21 10° ENE 04:09:57 15° E 04:11:36 13° ESE
ADEOS II 4.4 04:07:05 10° NE 04:10:39 18° E 04:14:05 10° SE
Cosmos 1934 Rocket 4.4 04:06:08 10° N 04:12:22 62° E 04:14:22 42° SE
NOSS 3-2 (C) 4.0 04:08:43 10° NNW 04:16:33 86° ENE 04:24:50 10° SSE
USA 267 3.1 04:15:57 10° SE 04:22:29 85° SW 04:29:04 10° NW
CENTAUR R/B 4.3 04:26:50 10° NNW 04:34:24 42° NE 04:42:16 10° SE
Cosmos 724 4.1 04:28:57 10° NNW 04:34:58 74° WSW 04:35:03 74° WSW
MOZ.5/SAFIR/RUBIN 5/SL-8 3.7 04:37:43 80° NNE 04:37:43 80° NNE 04:42:10 10° N
NOSS 2-2 (D) 4.5 04:39:11 36° N 04:39:11 36° N 04:42:10 10° NNE
Cosmos 2082 Rocket 3.7 04:35:30 17° SSE 04:39:01 32° ESE 04:44:01 10° NE
COSMOS 2406 4.4 04:39:50 29° NW 04:39:50 29° NW 04:44:06 10° N
ADEOS Rocket 3.8 04:33:47 10° N 04:38:59 36° WNW 04:38:59 36° WNW
OAO 1 4.5 04:39:34 67° S 04:39:45 68° SSE 04:45:11 10° ENE
Resurs 1-4 Rocket 3.6 04:36:16 10° NNW 04:39:09 23° NW 04:39:09 23° NW
Cosmos 2098 Rocket 4.5 04:40:59 10° NNE 04:42:23 22° NE 04:42:23 22° NE
CZ-2D R/B 3.6 04:39:57 10° NNW 04:42:53 23° NW 04:42:53 23° NW
Cosmos 1833 Rocket 4.2 04:40:49 15° SSE 04:44:38 32° ESE 04:49:33 10° NE
Cosmos 389 Rocket 3.8 04:45:59 10° N 04:49:25 40° E 04:50:47 27° SE
Cosmos 1953 3.8 04:45:46 10° NNW 04:47:42 27° NNW 04:47:42 27° NNW
Cosmos 1707 2.8 04:50:19 73° NE 04:50:19 73° NE 04:53:55 10° N
Delta 2 Rocket 4.3 04:51:27 31° N 04:51:27 31° N 04:54:08 10° ENE
GPS 2-05 Rocket1 4.3 04:52:47 32° ESE 04:52:47 32° ESE 04:55:08 10° E
CZ-4B R/B 4.1 04:48:02 10° NNE 04:53:08 43° E 04:57:40 12° S
Landsat 4 3.9 04:53:39 52° SE 04:54:20 65° ENE 04:58:02 10° N
Cosmos 1470 2.7 04:54:33 10° N 04:58:26 81° E 04:59:05 60° SSE
NOSS 3-2 (A) 4.4 04:51:26 10° NW 04:58:36 40° WSW 05:06:06 10° S
CZ-3 R/B 4.0 04:48:03 22° SSW 04:59:23 35° S 05:06:45 10° ESE
Cosmos 1624 Rocket 3.9 04:56:29 10° NNW 05:01:40 69° WSW 05:06:08 14° S
OAO 1 Rocket 4.3 05:02:01 41° WNW 05:03:53 79° SSW 05:09:11 10° ESE
Cosmos 1727 Rocket 3.9 05:01:32 36° SSW 05:04:05 64° W 05:10:14 10° N
Cosmos-2242 2.9 05:01:34 10° N 05:05:59 87° WSW 05:08:27 26° S
PSLV R/B 4.1 05:03:40 10° NNE 05:07:58 57° E 05:10:59 18° S
Cosmos 2056 Rocket 3.5 05:09:32 10° NNW 05:14:42 54° WSW 05:19:45 10° S
Meteor 1-24 Rocket 4.0 05:11:26 10° S 05:16:43 65° E 05:22:11 10° NNE
Cosmos 921 Rocket 3.1 05:12:19 10° NNW 05:16:43 54° W 05:19:28 22° S
Intelsat 5-3 Rocket 3.1 05:17:09 29° S 05:17:09 29° S 05:19:16 10° ESE
SL-16 R/B 4.2 05:19:34 15° WNW 05:19:34 15° WNW 05:21:22 10° NW
Geosat FO 4.5 05:15:00 10° SSE 05:18:35 89° NE 05:22:12 10° NNW
Cosmos 1153 Rocket 4.3 05:13:05 10° N 05:19:13 80° W 05:25:20 10° S
Cosmos 1378 3.3 05:23:26 42° SW 05:24:15 52° W 05:27:54 10° N
PSLV R/B 4.3 05:21:20 10° N 05:25:14 44° WNW 05:26:25 34° WSW
CZ-3A R/B 3.9 05:22:23 18° SSW 05:26:52 42° SE 05:59:46 10° E
CZ-4B R/B 3.1 05:22:40 10° N 05:26:55 58° WNW 05:29:22 25° SSW
Lacrosse 5 rocket 3.3 05:26:10 18° WNW 05:27:31 20° NW 05:30:58 10° N
MOS 1 Rocket 4.4 05:24:50 10° NNW 05:28:14 23° WNW 05:28:31 23° WNW
Cosmos 374 Rocket 4.3 05:29:01 10° NW 05:32:48 67° WSW 05:37:23 10° SSE
IRS-1C Rocket 4.2 05:34:32 10° N 05:39:42 58° WNW 05:44:35 11° SSW
BREEZE-M DEB 4.4 05:33:54 10° SSW 05:40:49 34° SE 05:43:32 10° ENE
Cosmos 158 Rocket 3.8 05:39:25 11° SSW 05:44:04 76° WNW 05:49:08 10° NNE
Timation 2 Rocket 4.2 05:37:23 10° SSW 05:44:11 83° ESE 05:50:46 10° NNE
Okean O Rocket 2.4 05:42:21 10° N 05:46:21 34° WNW 05:49:04 17° SW
COSMOS 2487 3.9 05:45:51 19° W 05:46:30 20° WNW 05:49:13 10° NNW
Cosmos 1733 4.5 05:43:50 10° NW 05:46:39 20° W 05:46:56 20° W
CZ-4B DEB 4.4 05:42:02 10° N 05:47:21 52° WNW 05:52:37 10° SSW
Meteor 2-5 Rocket 4.4 05:44:58 17° SW 05:48:41 34° WNW 05:53:51 10° NNW
Cosmos 1452 Rocket 3.4 05:44:45 10° NNW 05:49:57 66° WSW 05:55:08 10° S
Cosmos 1459 Rocket 3.9 05:44:09 10° N 05:50:19 78° W 05:56:33 10° S
ADEOS II 2.6 05:45:33 10° N 05:50:25 40° WNW 05:55:02 11° SW
EO 1 Del DPAF 3.1 05:47:33 10° S 05:51:23 76° WSW 05:55:15 10° NNW
COSMOS 2455 4.1 05:47:39 10° WNW 05:51:32 18° WSW 05:55:26 10° SW
SWIFT 4.3 05:50:32 12° SSW 05:51:36 13° SSW 05:53:37 10° SSE
NOSS 8 (E) 4.4 05:49:37 13° SSW 05:52:42 90° ESE 05:56:11 10° NNE
IRAS Rocket 4.3 05:48:10 10° N 05:53:45 68° WNW 05:59:19 10° SSW
Tiangong 1 3.9 05:56:52 10° N 05:57:46 11° NNE 05:58:40 10° NE
Cosmos 2278 3.7 05:54:03 10° NNW 05:59:46 76° WSW 06:05:26 10° SSE
Cosmos 1697 Rocket 3.9 05:54:58 10° N 06:00:22 46° ENE 06:05:44 10° SE
Cosmos 2369 3.7 06:00:47 10° NNW 06:06:29 68° WSW 06:12:09 10° S
Cosmos 1420 Rocket 4.0 06:03:21 10° NNW 06:08:38 71° WSW 06:13:52 10° S
Feng Yun 1-1 Rocket 4.2 06:07:10 10° N 06:12:38 80° WNW 06:18:00 10° SSW
Meteor 2-1 Rocket 4.3 06:11:32 10° NNW 06:17:08 64° W 06:22:49 10° S
Cosmos 1674 2.6 06:17:41 10° S 06:21:26 83° W 06:25:14 10° N
Cosmos 1076 Rocket 3.5 06:18:29 10° SSW 06:22:40 60° W 06:26:52 10° N
Cosmos 2082 Rocket 3.3 06:18:16 10° WSW 06:23:00 27° WNW 06:27:47 10° N
CENTAUR R/B 3.6 06:17:37 10° NW 06:25:08 40° WSW 06:32:48 10° S
Cosmos 1408 Rocket 3.6 06:22:03 10° S 06:26:30 88° W 06:30:59 10° N
